#timestamp,LO_Frequency,Hit 
1501243215.2,286047335.7,N
1501243235.0,286047334.4,N
1501243235.9,286047334.4,N
1501243255.8,286047337.2,N
1501243275.6,286047336.3,N
1501243295.4,286047339.1,N
1501243315.3,286047340.6,N
1501243335.1,286047344.3,N
1501243336.0,286047344.3,N
1501243355.8,286047350.0,N
1501243375.7,286047348.4,N
1501243395.5,286047346.0,N
1501243415.3,286047351.2,N
1501243435.2,286047348.9,N
1501243455.9,286047347.1,N
1501243475.7,286047348.1,N
1501243495.5,286047352.8,N
1501243515.4,286047350.7,N
1501243535.2,286047353.0,N
1501243555.0,286047350.5,N
1501243555.9,286047350.5,N
1501243575.8,286047353.2,N
1501243595.6,286047350.6,N
1501243615.4,286047349.1,N
1501243635.3,286047346.9,N
1501243655.1,286047348.3,N
1501243656.0,286047348.3,N
1501243675.8,286047349.4,N
1501243695.7,286047350.4,N
1501243715.5,286047352.8,N
1501243735.3,286047349.3,N
1501243755.1,286047349.0,N
1501243775.9,286047352.6,N
1501243795.7,286047353.9,N
1501243815.5,286047351.9,N
1501243835.4,286047350.1,N
1501243855.2,286047351.2,N
1501243875.0,286047353.2,N
1501243875.9,286047353.2,N
1501243895.8,286047350.2,N
1501243915.6,286047354.2,N
1501243935.4,286047348.6,N
1501243955.3,286047347.9,N
1501243975.1,286047349.6,N
1501243976.0,286047349.6,N
1501243995.8,286047351.6,N
1501244015.7,286047351.2,N
1501244035.5,286047349.6,N
1501244055.3,286047345.8,N
1501244075.2,286047347.5,N
1501244095.9,286047348.1,N
1501244115.7,286047346.9,N
1501244135.5,286047348.6,N
1501244155.4,286047350.3,N
1501244175.2,286047348.6,N
1501244195.0,286047347.4,N
1501244195.9,286047347.4,N
1501244215.8,286047351.0,N
1501244235.6,286047348.1,N
1501244255.4,286047343.9,N
1501244275.3,286047344.7,N
1501244295.1,286047344.8,N
1501244296.0,286047344.8,N
1501244315.8,286047344.7,N
1501244335.7,286047344.9,N
1501244355.5,286047343.9,N
1501244375.3,286047346.6,N
1501244395.1,286047343.7,N
1501244415.9,286047344.1,N
1501244435.7,286047344.5,N
1501244455.5,286047344.4,N
1501244475.4,286047345.6,N
1501244495.2,286047343.7,N
1501244515.0,286047348.3,N
1501244515.9,286047348.3,N
1501244535.8,286047342.5,N
1501244555.6,286047342.4,N
1501244575.4,286047343.7,N
1501244595.3,286047348.0,N
1501244615.1,286047347.2,N
1501244616.0,286047347.2,N
1501244635.8,286047349.7,N
1501244655.7,286047350.6,N
1501244675.5,286047352.9,N
1501244695.3,286047350.1,N
1501244715.1,286047348.6,N
1501244735.9,286047349.7,N
1501244755.7,286047347.2,N
1501244775.5,286047349.0,N
1501244795.4,286047348.8,N
1501244815.2,286047347.5,N
1501244835.0,286047350.3,N
1501244835.9,286047350.3,N
1501244855.8,286047349.5,N
1501244875.6,286047346.8,N
1501244895.4,286047343.2,N
1501244915.3,286047340.0,N
1501244935.1,286047338.5,N
1501244936.0,286047338.5,N
1501244955.8,286047335.9,N
1501244975.7,286047338.4,N
1501244995.5,286047338.3,N
1501245015.3,286047337.2,N
1501245035.1,286047336.1,N
1501245055.9,286047338.7,N
1501245075.7,286047336.0,N
1501245095.5,286047340.0,N
1501245115.4,286047340.6,N
1501245135.2,286047346.5,N
1501245155.0,286047349.5,N
1501245155.9,286047349.5,N
1501245175.8,286047351.1,N
1501245195.6,286047353.1,N
1501245215.4,286047352.5,N
1501245235.3,286047352.2,N
1501245255.1,286047351.8,N
1501245256.0,286047351.8,N
1501245275.8,286047351.8,N
1501245295.7,286047356.3,N
1501245315.5,286047357.5,N
1501245335.3,286047356.2,N
1501245355.1,286047350.8,N
1501245375.9,286047349.5,N
1501245395.7,286047347.7,N
1501245415.5,286047346.7,N
1501245435.4,286047344.7,N
1501245455.2,286047344.5,N
1501245475.0,286047344.8,N
1501245475.9,286047344.8,N
1501245495.8,286047346.5,N
1501245515.6,286047346.1,N
1501245535.4,286047349.8,N
1501245555.3,286047351.0,N
1501245575.1,286047352.5,N
1501245576.0,286047352.5,N
1501245595.8,286047351.9,N
1501245615.7,286047357.3,N
1501245635.5,286047356.0,N
1501245655.3,286047354.1,N
1501245675.1,286047352.3,N
1501245695.9,286047353.0,N
1501245715.7,286047357.2,N
1501245735.5,286047352.2,N
1501245755.4,286047354.4,N
1501245775.2,286047355.4,N
1501245795.0,286047358.5,N
1501245795.9,286047358.5,N
1501245815.8,286047356.8,N
1501245835.6,286047356.4,N
1501245855.4,286047348.6,N
1501245875.3,286047347.5,N
1501245895.1,286047347.0,N
1501245896.0,286047347.0,N
1501245915.8,286047350.2,N
1501245935.7,286047351.1,N
1501245955.5,286047354.4,N
1501245975.3,286047352.4,N
1501245995.1,286047356.4,N
1501246015.9,286047352.1,N
1501246035.7,286047353.2,N
1501246055.5,286047351.9,N
1501246075.4,286047353.0,N
1501246095.2,286047348.9,N
1501246115.0,286047350.5,N
1501246115.9,286047350.5,N
1501246135.8,286047351.3,N
1501246155.6,286047349.5,N
1501246175.4,286047351.2,N
1501246195.3,286047350.4,N
1501246215.1,286047349.5,N
1501246216.0,286047349.5,N
1501246235.8,286047349.5,N
1501246255.7,286047348.9,N
1501246275.5,286047346.9,N
1501246295.3,286047348.8,N
1501246315.1,286047350.0,N
1501246335.9,286047349.8,N
1501246355.7,286047351.6,N
1501246375.5,286047351.0,N
1501246395.4,286047350.4,N
1501246415.2,286047348.2,N
1501246435.0,286047342.5,N
1501246435.9,286047342.5,N
1501246455.8,286047343.7,N
1501246475.6,286047345.7,N
1501246495.4,286047346.7,N
1501246515.3,286047342.8,N
1501246535.1,286047341.3,N
1501246536.0,286047341.3,N
1501246555.8,286047338.9,N
1501246575.7,286047338.8,N
1501246595.5,286047338.3,N
1501246615.3,286047337.0,N
1501246635.1,286047333.1,N
1501246655.9,286047331.1,N
1501246675.7,286047331.9,N
1501246695.5,286047330.9,N
1501246715.4,286047332.5,N
1501246735.2,286047332.5,N
1501246755.0,286047331.2,N
1501246755.9,286047331.2,N
1501246775.8,286047332.0,N
1501246795.6,286047328.8,N
